Michigan Logo

Saline, MI Single Family Real Estate Listings

21 Total Real Estate Listings * Click on table heading to sort
Date Posted Property Type Style Address Price Living Area Lot Size Price/Sq Ft.
2018-01-18 Single Family Colonial 300 Stone Glen Court Saline, MI 48176 $329,900 2,069 sq. ft. 20,909 sq. ft. $159
2018-01-17 Single Family Ranch 261 Wallace Drive Saline, MI 48176 $184,000 960 sq. ft. $192
2018-01-15 Single Family 12911 Case Road Saline, MI 49236 $595,000 2,782 sq. ft. 1,838,668 sq. ft. $214
2018-01-10 Single Family Ranch 502 Canterbury Drive Saline, MI 48176 $194,900 1,204 sq. ft. 10,019 sq. ft. $162
2017-12-18 Single Family Colonial 8078 Biscayne Ct Saline, MI 48176 $315,000 1,964 sq. ft. 43,560 sq. ft. $160
2017-12-17 Single Family Cape Cod 209 Ann Arbor Street Saline, MI 48176 $169,000 1,499 sq. ft. 10,890 sq. ft. $113
2017-12-14 Single Family Cape Cod 3348 Oak Park Drive Saline, MI 48176 $599,000 5,766 sq. ft. 43,560 sq. ft. $104
2017-12-06 Single Family Ranch 465 Amherst Circle Saline, MI 48176 $539,000 1,840 sq. ft. 24,394 sq. ft. $293
2017-11-27 Single Family Ranch 457 Hollywood Drive Saline, MI 48176 $172,500 1,334 sq. ft. 6,970 sq. ft. $129
2017-11-22 Single Family Colonial 300 Crestway Ct Saline, MI 48176 $559,000 3,092 sq. ft. 45,738 sq. ft. $181
2017-11-20 Single Family Colonial 0 Willow Road Saline, MI 48176 $596,641 3,129 sq. ft. 701,752 sq. ft. $191
2017-11-16 Single Family 1045 Melrose Court Saline, MI 48176 $365,000 2,092 sq. ft. $174
2017-11-15 Single Family 317 Michigan Avenue Saline, MI 48176 $355,000 2,956 sq. ft. 27,443 sq. ft. $120
2017-11-12 Single Family 202 Lewis Saline, MI 48167 $243,900 1,788 sq. ft. 15,246 sq. ft. $136
2017-11-06 Single Family 1488 Maplewood Drive Saline, MI 48176 $297,500 1,656 sq. ft. 3,920 sq. ft. $180
2017-10-09 Single Family 352 Arlington Drive Saline, MI 48176 $470,000 2,654 sq. ft. 17,424 sq. ft. $177
2017-09-05 Single Family Contemporary 0 Oak Park Drive Saline, MI 48176 $474,090 2,870 sq. ft. 52,708 sq. ft. $165
2017-08-18 Single Family Colonial 6925 Arkona Road Saline, MI 48176 $539,900 3,300 sq. ft. 1,466,230 sq. ft. $164
2017-06-19 Single Family 208 Ann Arbor Street Saline, MI 48176 $245,000 2,200 sq. ft. 9,583 sq. ft. $111
2017-06-16 Single Family 3404 Oak Park Drive Saline, MI 48176 $899,900 3,791 sq. ft. 84,506 sq. ft. $237
2017-03-03 Single Family 3404 Oak Park Drive Saline, MI 48176 $999,900 3,791 sq. ft. 167,270 sq. ft. $264